Wind_Speed
2 4 4 12 11 2 5 4 4 2 6 7 7 9 17 24 19 17 25 27 24 25 11 14 14 12 11 13 14 17 19 24 25 27 25 25 29 31 30 26 25 19 18 19
5 4 11 4 4 7 7 5 7 4 3 4 6 4 10 17 18 20 22 22 26 23 18 17 15 13 13 11 11 11 15 18 20 22 23 28 27 27 26 21 22 22 21 18
6 11 5 3 4 9 3 6 6 7 4 4 6 1 3 6 11 13 17 24 26 26 19 17 16 13 13 11 9 11 12 12 14 16 18 24 24 24 24 21 20 23 20 20
6 8 1 4 6 5 5 9 6 7 6 4 3 4 5 6 7 8 14 22 24 25 22 19 17 13 12 7 8 9 9 10 12 16 18 19 22 23 22 26 30 26 25 23
12 4 1 1 6 7 9 7 4 3 3 5 0 2 4 3 5 6 9 8 12 12 12 11 11 10 10 9 8 6 8 9 9 11 14 18 20 20 19 22 23 24 25 25
10 3 4 6 4 3 2 1 2 3 3 3 3 5 3 5 6 4 4 9 14 14 14 14 12 10 11 10 7 7 9 8 8 9 12 17 20 18 19 21 24 26 25 27
6 6 5 2 2 2 2 5 4 4 4 5 2 1 6 5 5 10 12 17 17 17 16 14 12 13 10 9 7 6 6 9 10 9 11 12 16 17 20 24 25 27 27 22
3 7 3 2 5 5 1 6 5 5 4 4 3 3 3 3 10 13 16 19 16 16 14 11 8 10 12 9 5 7 9 11 12 12 12 14 15 18 23 23 22 23 23 24
2 4 4 1 2 4 1 3 3 5 2 2 2 5 5 1 3 8 10 15 16 14 14 13 13 13 10 7 10 10 15 16 15 13 12 12 17 18 22 20 22 23 22 20
8 3 3 5 7 3 3 2 2 3 2 5 2 4 5 7 9 5 10 22 19 15 14 13 11 9 9 10 9 15 16 15 13 13 13 14 15 19 22 22 22 23 21 25
2 3 5 3 1 4 4 3 5 4 3 3 1 5 6 9 11 10 16 20 16 14 17 13 11 10 9 8 13 14 13 11 12 13 14 14 19 23 20 21 23 23 24 26
3 4 1 4 4 4 3 2 4 4 3 1 3 6 2 9 11 20 23 20 16 15 14 11 11 9 11 11 11 10 9 10 11 11 14 21 24 22 21 22 21 21 25 24
1 3 3 8 6 6 3 3 3 4 3 4 4 6 1 4 11 23 22 18 13 10 14 12 9 8 9 10 9 8 10 10 11 16 19 20 23 21 19 19 22 25 27 25
1 3 4 4 6 2 5 6 2 5 3 3 5 3 4 6 7 13 15 12 12 12 12 9 6 4 5 6 5 7 11 13 14 16 20 21 17 15 17 21 23 24 23 24
4 1 2 4 6 5 7 5 2 2 3 3 6 5 5 12 9 18 16 10 9 12 9 7 6 4 2 4 7 8 10 13 17 18 19 18 15 13 16 20 22 20 18 18
2 2 3 5 4 5 3 10 7 6 3 3 0 5 3 6 14 9 11 10 12 13 10 6 2 2 5 5 5 7 12 15 17 17 16 18 19 16 14 16 18 17 15 15
3 2 3 4 7 7 4 5 2 1 1 3 3 5 1 6 5 4 7 11 14 10 5 1 3 5 4 3 7 10 15 16 15 18 19 17 15 14 13 14 17 15 15 14
4 3 2 3 6 3 3 2 4 2 4 6 4 5 8 12 11 9 9 12 9 5 1 3 6 4 4 7 10 15 16 16 18 15 15 13 14 13 12 14 17 15 15 14
5 4 2 1 1 4 1 3 1 3 3 5 5 7 15 18 16 11 8 5 3 1 3 5 7 5 6 10 15 17 18 16 14 14 15 14 12 12 14 16 16 17 16 12
8 6 4 1 1 2 1 2 3 2 4 4 4 7 9 2 2 3 7 3 2 3 4 7 5 4 9 15 17 17 20 15 12 14 15 13 12 13 17 20 17 16 14 9
3 3 3 2 1 5 4 7 2 3 5 0 1 2 4 2 3 8 9 7 5 4 5 4 3 7 13 17 16 15 18 17 16 16 16 15 14 16 17 18 13 14 12 10
3 3 2 2 1 3 6 3 3 4 2 2 7 7 6 7 8 8 7 7 7 6 4 4 5 11 15 16 14 14 16 16 17 17 17 16 15 17 16 13 14 12 9 9
2 4 3 5 4 4 4 4 5 3 4 8 7 7 6 10 8 7 7 8 6 6 8 7 7 12 14 14 14 14 16 18 18 17 17 18 13 17 15 14 13 12 7 9
5 2 3 3 2 2 2 2 2 3 5 7 6 10 7 5 3 4 7 8 8 8 10 9 10 12 15 14 16 17 16 16 17 15 18 19 12 14 15 14 11 9 9 8
2 3 1 2 4 3 5 1 3 7 6 7 8 4 2 2 3 5 6 8 10 9 11 11 13 14 16 16 18 18 16 17 18 16 16 19 14 13 15 15 13 8 7 6
5 2 3 3 3 2 4 4 8 8 9 3 1 4 5 5 8 9 9 7 8 10 12 13 12 13 17 18 18 18 19 18 18 19 17 16 12 11 14 14 11 9 10 10
Wind_Direction
35 68 266 244 214 221 188 186 246 238 188 157 195 155 184 185 196 213 211 213 218 230 218 222 220 226 237 253 265 265 266 268 271 271 282 293 298 283 283 280 282 288 301 298
7 284 252 270 206 204 141 222 237 268 212 131 150 171 196 192 203 212 220 226 232 236 236 234 230 236 244 260 262 274 276 277 280 287 288 291 299 294 286 277 286 286 291 296
188 246 287 226 188 186 205 188 249 215 108 37 116 279 218 225 227 234 228 238 246 246 246 249 248 249 253 265 277 286 296 299 294 293 294 290 298 302 289 285 300 284 280 292
221 264 216 285 223 153 185 224 229 172 133 227 167 250 233 195 239 240 233 239 239 247 248 259 250 248 242 251 262 272 277 286 282 286 286 295 302 304 298 287 299 290 280 281
257 269 93 141 219 166 232 175 226 320 187 104 115 86 258 132 238 250 265 246 216 225 227 207 200 203 209 222 228 245 264 268 288 285 290 297 301 302 303 297 301 302 280 278
244 261 210 230 215 189 50 131 71 85 86 11 199 171 246 184 197 193 209 186 171 175 180 174 180 191 196 195 204 258 268 276 281 296 311 319 307 307 307 309 314 312 299 274
336 310 283 135 234 135 104 59 340 343 355 229 206 140 250 223 219 179 182 174 177 184 181 179 188 187 194 213 250 246 266 279 283 279 298 297 295 290 301 308 313 321 302 287
277 312 2 274 229 227 123 156 154 238 225 267 330 259 273 278 213 193 184 187 188 184 185 190 191 204 211 213 213 246 249 284 284 283 303 316 297 302 309 299 305 313 317 294
131 262 301 103 256 116 257 240 212 127 59 76 287 306 306 191 237 181 199 189 181 179 195 196 193 204 207 222 286 277 291 284 277 287 290 292 312 313 319 309 310 308 307 310
204 206 248 340 27 11 194 162 286 22 260 269 264 274 237 230 230 211 185 184 190 203 202 185 187 204 234 260 290 285 263 263 275 283 290 302 310 312 310 303 309 314 310 308
120 107 288 58 30 249 332 325 49 111 123 191 265 258 209 222 209 191 191 191 187 197 183 192 213 230 241 263 276 252 252 274 288 288 300 309 309 309 297 300 307 310 311 311
320 134 354 224 261 280 218 208 134 126 249 226 165 270 270 241 190 180 189 190 198 195 193 218 215 220 236 252 237 250 269 268 282 297 300 302 307 306 303 305 310 317 320 316
285 15 18 339 356 5 12 270 134 105 80 201 153 267 322 148 158 178 183 199 201 208 212 202 206 233 258 244 228 254 253 275 283 297 301 302 305 297 305 308 312 317 316 313
34 103 153 211 234 212 305 295 133 139 123 213 230 259 246 229 203 196 196 198 206 205 186 183 218 200 171 198 236 269 275 287 295 305 307 302 292 290 304 310 319 320 315 318
85 22 198 251 255 268 288 307 225 76 213 174 295 226 245 220 207 207 206 196 187 161 162 159 151 152 216 293 304 285 293 309 315 316 309 299 295 279 297 310 322 321 321 329
54 289 33 300 331 330 88 20 48 63 39 44 88 271 264 206 209 233 219 184 150 136 135 133 126 338 327 316 296 308 312 317 321 319 321 317 303 301 308 318 326 322 321 323
128 105 52 283 340 327 12 345 9 100 97 278 274 280 32 57 89 121 121 139 137 137 138 145 349 342 333 296 306 328 333 323 313 316 314 314 320 309 305 320 326 321 323 317
129 93 79 283 2 0 271 258 315 103 19 354 29 41 75 96 91 94 131 140 142 158 190 341 343 329 304 326 336 343 336 321 321 327 330 322 332 327 321 321 328 326 327 320
83 95 61 98 243 296 255 246 273 67 316 344 97 94 106 108 96 79 121 129 143 209 319 340 337 317 325 337 342 342 346 336 339 346 345 340 331 340 337 329 326 331 334 323
73 68 113 101 257 257 277 354 153 55 315 0 98 127 166 127 53 251 168 184 235 283 313 329 307 310 342 345 346 348 349 342 345 347 346 344 346 340 334 328 322 327 333 329
26 23 109 106 264 294 278 299 162 53 249 319 141 158 153 177 219 172 188 203 215 264 307 292 282 337 352 357 355 337 350 352 349 338 338 329 334 335 333 334 329 320 327 331
179 128 134 83 46 319 351 344 17 196 168 174 138 140 131 143 160 181 200 217 234 267 307 261 308 348 350 354 344 342 338 335 341 338 339 336 327 339 338 332 341 331 325 342
60 171 184 166 218 266 346 97 121 167 173 170 174 182 192 175 183 201 229 226 256 308 325 297 318 340 345 339 336 329 333 335 335 339 342 336 327 353 345 344 339 337 322 350
354 55 81 61 331 289 217 149 142 180 180 184 214 179 170 163 178 261 253 258 280 299 321 305 301 319 335 323 339 340 331 327 323 331 346 341 329 339 346 349 340 330 336 342
267 25 73 356 317 303 255 313 170 154 161 142 130 148 178 324 325 319 305 296 278 291 315 306 293 316 319 315 340 342 329 315 319 330 341 349 336 344 346 349 345 338 337 313
346 184 121 216 296 223 280 220 185 163 146 147 286 243 265 286 303 301 296 298 285 292 299 300 303 314 320 310 326 340 335 316 320 337 337 347 4 0 354 356 2 349 324 318
Height
1520 1529 1535 1526 1524 1521 1526 1533 1536 1526 1524 1529 1534 1537 1536 1539 1543 1543 1540 1541 1545 1548 1548 1549 1550 1552 1552 1553 1554 1555 1555 1555 1555 1554 1553 1550 1548 1547 1547 1546 1544 1542 1541 1540
1525 1533 1516 1517 1516 1520 1522 1528 1531 1523 1521 1525 1533 1538 1538 1537 1535 1538 1543 1544 1544 1546 1546 1547 1547 1550 1550 1551 1552 1552 1551 1552 1552 1551 1550 1547 1545 1542 1541 1541 1540 1538 1537 1536
1527 1517 1509 1513 1514 1520 1518 1525 1523 1524 1525 1528 1533 1541 1539 1539 1538 1538 1540 1539 1541 1542 1543 1544 1545 1546 1548 1548 1549 1549 1549 1549 1549 1548 1546 1544 1541 1538 1537 1537 1535 1534 1533 1531
1520 1508 1510 1511 1514 1513 1526 1511 1511 1518 1532 1545 1528 1553 1540 1536 1537 1536 1536 1535 1537 1538 1540 1541 1542 1543 1545 1546 1546 1546 1547 1547 1546 1545 1543 1541 1538 1534 1532 1531 1530 1528 1527 1525
1515 1509 1510 1513 1508 1506 1514 1506 1510 1510 1522 1532 1538 1548 1537 1536 1537 1534 1532 1530 1531 1534 1537 1538 1539 1541 1542 1542 1543 1544 1544 1545 1545 1543 1541 1539 1536 1532 1529 1527 1525 1523 1521 1521
1509 1504 1505 1504 1501 1503 1504 1508 1513 1522 1528 1545 1536 1541 1537 1540 1532 1530 1528 1530 1531 1533 1536 1536 1537 1539 1539 1540 1541 1542 1542 1542 1541 1540 1538 1536 1532 1529 1526 1523 1520 1517 1515 1513
1512 1507 1502 1500 1506 1504 1510 1520 1544 1544 1547 1553 1534 1538 1532 1527 1523 1522 1526 1529 1530 1532 1533 1534 1535 1537 1538 1539 1540 1540 1539 1539 1537 1535 1533 1531 1529 1526 1523 1520 1515 1511 1508 1505
1528 1531 1507 1499 1502 1507 1507 1516 1546 1553 1556 1542 1533 1538 1530 1522 1521 1522 1525 1527 1529 1531 1532 1533 1534 1536 1536 1537 1537 1537 1536 1534 1532 1530 1529 1527 1525 1523 1520 1516 1512 1507 1503 1501
1527 1522 1502 1498 1497 1502 1510 1520 1512 1529 1538 1546 1545 1536 1524 1522 1522 1523 1524 1526 1529 1530 1531 1532 1532 1534 1535 1535 1534 1533 1532 1530 1528 1527 1525 1523 1521 1519 1515 1512 1507 1503 1499 1496
1509 1524 1502 1497 1496 1500 1503 1507 1521 1532 1540 1547 1547 1543 1537 1525 1522 1521 1523 1525 1526 1527 1529 1528 1531 1532 1532 1532 1531 1530 1529 1528 1526 1524 1521 1519 1516 1513 1511 1507 1503 1498 1495 1491
1504 1512 1511 1499 1508 1512 1512 1515 1522 1526 1535 1545 1553 1545 1517 1516 1515 1516 1520 1522 1524 1524 1525 1527 1529 1530 1530 1529 1528 1527 1527 1526 1524 1521 1519 1516 1513 1510 1505 1502 1498 1494 1489 1485
1508 1515 1524 1513 1502 1503 1504 1509 1518 1533 1534 1541 1544 1538 1510 1509 1509 1512 1517 1519 1522 1523 1525 1526 1527 1528 1528 1527 1527 1527 1525 1523 1521 1519 1516 1513 1509 1506 1502 1497 1494 1489 1484 1480
1507 1521 1534 1525 1515 1505 1509 1507 1511 1521 1528 1533 1539 1535 1509 1508 1509 1511 1515 1518 1522 1523 1524 1525 1526 1526 1526 1526 1525 1525 1523 1521 1519 1516 1513 1510 1506 1501 1497 1493 1489 1485 1479 1475
1507 1519 1525 1536 1527 1520 1519 1508 1510 1517 1535 1529 1528 1517 1515 1513 1512 1513 1515 1519 1522 1523 1523 1524 1525 1525 1525 1526 1525 1524 1523 1519 1516 1513 1509 1505 1500 1497 1493 1489 1484 1479 1474 1469
1511 1523 1519 1517 1516 1514 1513 1509 1507 1513 1516 1522 1519 1517 1511 1509 1511 1512 1514 1517 1520 1521 1523 1524 1525 1526 1527 1526 1524 1522 1520 1517 1513 1509 1505 1500 1496 1492 1488 1485 1480 1475 1471 1466
1512 1521 1518 1520 1512 1512 1517 1516 1514 1514 1516 1516 1516 1514 1506 1505 1510 1514 1514 1518 1521 1522 1524 1525 1526 1526 1525 1524 1522 1520 1517 1513 1508 1504 1500 1496 1492 1488 1485 1481 1477 1472 1468 1465
1515 1520 1527 1528 1518 1515 1526 1524 1519 1516 1516 1517 1520 1512 1508 1509 1512 1515 1516 1518 1522 1525 1526 1526 1525 1524 1522 1521 1519 1517 1513 1509 1505 1500 1496 1492 1487 1484 1481 1477 1473 1469 1465 1462
1516 1522 1531 1532 1526 1540 1523 1520 1519 1518 1518 1515 1514 1514 1512 1514 1516 1516 1519 1521 1524 1525 1526 1525 1524 1522 1520 1519 1517 1513 1510 1506 1501 1496 1493 1489 1485 1481 1477 1474 1470 1466 1462 1459
1513 1524 1537 1539 1541 1528 1522 1518 1519 1520 1521 1517 1518 1518 1518 1519 1519 1523 1524 1525 1525 1525 1524 1523 1522 1520 1519 1517 1514 1510 1507 1502 1498 1493 1490 1486 1482 1478 1475 1470 1467 1463 1459 1456
1517 1521 1530 1539 1538 1540 1523 1517 1518 1518 1532 1519 1519 1520 1521 1522 1528 1527 1525 1525 1525 1524 1523 1522 1520 1519 1518 1515 1511 1508 1504 1500 1496 1492 1488 1484 1480 1476 1472 1468 1464 1461 1458 1454
1527 1529 1534 1546 1539 1532 1521 1518 1518 1532 1537 1521 1521 1522 1523 1524 1523 1523 1524 1524 1524 1523 1522 1521 1520 1518 1516 1512 1509 1506 1502 1498 1494 1490 1486 1482 1478 1473 1469 1465 1462 1460 1456 1453
1525 1531 1537 1542 1542 1536 1520 1519 1523 1525 1522 1522 1523 1523 1524 1523 1523 1524 1524 1524 1523 1522 1521 1519 1518 1516 1513 1510 1506 1503 1500 1496 1492 1487 1483 1479 1475 1471 1467 1463 1461 1458 1455 1453
1526 1527 1532 1533 1534 1524 1522 1521 1521 1522 1522 1523 1524 1524 1524 1524 1525 1525 1524 1523 1522 1520 1519 1517 1516 1513 1511 1508 1505 1502 1498 1494 1490 1485 1481 1477 1473 1469 1465 1462 1459 1456 1455 1452
1524 1522 1527 1528 1525 1524 1524 1524 1523 1523 1523 1524 1524 1525 1526 1526 1526 1525 1524 1522 1520 1518 1517 1515 1513 1511 1509 1506 1503 1499 1495 1492 1488 1484 1479 1475 1471 1468 1465 1461 1458 1455 1454 1452
1527 1523 1527 1529 1525 1524 1524 1524 1524 1524 1525 1526 1527 1527 1527 1526 1525 1523 1521 1519 1517 1516 1514 1513 1511 1508 1506 1504 1501 1497 1493 1490 1486 1482 1478 1473 1470 1467 1464 1461 1458 1455 1453 1451
1526 1526 1531 1534 1527 1526 1525 1524 1525 1525 1526 1527 1526 1526 1525 1523 1521 1519 1518 1516 1515 1513 1511 1510 1508 1506 1504 1501 1498 1495 1491 1487 1484 1480 1477 1473 1469 1467 1464 1461 1459 1456 1454 1452